Showing default

QIANFAN-64, 62794

Orbit data source: Space-Track

QIANFAN-64, 62794 is a Chinese payload satellite in LEO that was launched on Thu, 23 Jan 2025 UTC via a CHANG ZHENG 6A launch vehicle from the Taiyaun Space Center, China (TSC). Payload-class satellites include a variety of spacecraft equipped with specific instruments for various scientific and technological missions. These include communications satellites like Starlink; space stations such as the ISS; scientific satellites like the Hubble; Earth observation satellites from companies like Planet Labs, Umbra, and HawkEye 360; GPS; miniature CubeSats for education and research; and military/defense satellites.

Loading next visibility...
Identifier
62794, 2025-016K
Orbit
LEO
Country
Flag of CNCN / PRC
Related business
Manufacturer
SECM
Mission
Operational Commercial Communications
Bus & Motor
QIANFAN, Unknown motor
Mass
267 kg wet, ~267 kg dry
Launch date (UTC)
2025-01-23 (9 months ago)
Launch vehicle
CHANG ZHENG 6A
Launch site
Taiyaun Space Center, China (TSC)
Object type
Payload
Rocket body
Debris
Shape & HBR
Box + 1 Pan, 1.3 m
Radar Cross Section
13.200 m², Large (>1 m²)

Expand to show TLE details & history
Last TLE update: 1 day ago

TLE from 1 day ago
0 QIANFAN-64
1 62794U 25016K   25306.44358696  .00000076  00000-0  99102-4 0  9991
2 62794  88.9733 107.1985 0015787  97.7106 262.5838 13.50975205 41823
Epoch: 2025-11-02T10:38Z
TLE epoch observation values (Epoch: 2025-11-02T10:38:45.913Z)
Latitude
-0.00006°
Longitude
-94.45204°
Altitude
1,073.162 km
Speed
7.315 km/s
True Right ascension
07h 08m 47s
True Declination
0° 00' 00"
Sunlit
Object was in daylight at epoch
Visualization orbit readout
Latitude
Unknown
Longitude
Unknown
Altitude
Unknown
Speed
Unknown
Apparent Right ascension
Unknown
Apparent Declination
Unknown
Sunlit
N/A
Visualization observer readout
Local Sidereal Time
14:39:07
Azimuth
Unknown
Elevation
Unknown
Doppler factor
Unknown
Orbital elements
Apogee altitude
1,077.476 km
Perigee altitude
1,053.972 km
Semi-major axis
7,443.861 km
Eccentricity
0.00158
Inclination
88.9733°
RAAN
107.1985°
Arg. of periapsis
97.7106°
True anomaly
262.40445°
Mean anomaly
262.5838°
Eccentric anomaly
262.49412°
Mean motion
3.37945 °/min
Orbital period
106.53 mins
BSTAR
0.000099102
Loading maneuver chart data...
Computing Atmospheric mass density...
Loading historical data...
Loading historical data...
Loading historical data...
Loading historical data...
Loading historical data...
Loading historical data...
Loading historical data...

Documentation

Showing up to 5 results
|